Flag for Germany Weather past 2 weeks in Burgdorf, Lower Saxony, Germany

Now
43 °F

Quite cool.


Feels Like: 39 °F
Forecast: 37 / 62 °F
Wind: 6 mph from Northwest

Location: Celle Airport


UV Index: 3 (Moderate)

Visibility: 4 mi


Pressure: 29.89 "Hg

Humidity: 93%

Dew point: 41 °F

Location of BurgdorfLocation

Historic Weather in Burgdorf

°F

Burgdorf temperature yesterday

Maximum temperature yesterday: 61 °F (at 5:20 PM)
Minimum temperature yesterday: 34 °F (at 6:20 AM)
Average temperature yesterday: 49 °F

Past Weeks' High & Low Weather Summary

 TemperatureHumidityPressure
High68 °F (Apr 7, 3:20 PM)100% (Apr 5, 11:50 PM)30.48 "Hg (Apr 5, 11:50 PM)
Low30 °F (Apr 16, 4:20 AM)34% (Apr 17, 3:20 PM)29.65 "Hg (Apr 3, 7:20 PM)
Average50 °F77%30.02 "Hg
* Reported Apr 3 7:20 PM — Apr 18 7:20 PM, Burgdorf, Weather by CustomWeather, © 2014

Note: Actual official high and low records may vary slightly from our data, if they occured in-between our weather recording intervals... More about our weather records

Advertising

Historic Weather Conditions — Data for Previous 24 hours

 ConditionsComfort  
Time TempWeatherWind HumidityBarometerVisibility
7:20 PM
Apr 18
43 °FQuite cool.6 mph93%29.89 "Hg4 mi
6:20 PM43 °FQuite cool.6 mph93%29.89 "Hg3 mi
5:20 PM52 °FCool.7 mph62%29.86 "Hg4 mi
4:20 PM52 °FCool.9 mph67%29.86 "Hg4 mi
3:20 PM50 °FCool.6 mph82%29.86 "Hg4 mi
2:20 PM48 °FCool.8 mph76%29.86 "Hg4 mi
1:20 PM52 °FCool.13 mph67%29.83 "Hg4 mi
12:20 PM48 °FCool.8 mph76%29.83 "Hg3 mi
11:20 AM46 °FCool.9 mph82%29.83 "Hg4 mi
10:20 AM45 °FQuite cool.7 mph87%29.83 "Hg1 mi
9:20 AM45 °FQuite cool.9 mph87%29.80 "Hg4 mi
8:20 AM43 °FQuite cool.6 mph93%29.80 "Hg4 mi
7:20 AM43 °FQuite cool.6 mph87%29.80 "Hg4 mi
6:20 AM41 °FQuite cool.3 mph93%29.80 "Hg3 mi
5:20 AM43 °FQuite cool.5 mph93%29.80 "Hg4 mi
4:20 AM43 °FQuite cool.5 mph93%29.80 "Hg4 mi
3:20 AM45 °FQuite cool.5 mph93%29.80 "Hg4 mi
2:20 AM45 °FQuite cool.3 mph93%29.80 "Hg4 mi
1:20 AM46 °FCool.8 mph87%29.83 "Hg3 mi
12:20 AM50 °FCool.8 mph67%29.83 "Hg3 mi
11:20 PM
Apr 17
54 °FCool.12 mph51%29.83 "Hg4 mi
10:20 PM55 °FRefreshingly cool.10 mph47%29.86 "Hg4 mi
9:20 PM54 °FCool.5 mph51%29.86 "Hg4 mi
8:20 PM55 °FRefreshingly cool.3 mph44%29.89 "Hg4 mi
Weather by CustomWeather, © 2014

See weather overview